• Join FlightAware (Why Join?)
  • Login
  • US Flag GB Flag 
06:46 EDT


 

Airport Tracker/Info


-or-


 

Live Flight TrackerFlight Track Log ✈ ASH3788 ✈ 16-Jun-2013 ✈ KAUS - KIAD

Flight Track Log - Related Links

Times and Time Zones

All times are in EDT time to prevent confusion due to time zone crossing. See the ASH3788 flight status page for this flight to view local times or setup timezone preferences in your user account.

Time Position Orientation Groundspeed Altitude Reporting Facility
EDT Latitude Longitude Course Direction KTS MPH feet Rate Location/Type
08:18 30.1372 -97.5697 97° East 274 315 4,600  Level Houston Center
08:19 30.1883 -97.4994 50° Northeast 280 322 7,100 2,340 Climbing Houston Center
08:20 30.2322 -97.4203 57° Northeast 288 331 9,400 1,860 Climbing Houston Center
08:21 30.2639 -97.3289 68° East 304 350 11,000 1,620 Climbing Houston Center
08:22 30.3333 -96.9223 90° East  Level FlightAware Approximate
08:22 30.3003 -97.2278 67° East 327 376 12,800  Level Houston Center
08:23 30.3313 -96.7794 97° East  Level FlightAware Approximate
08:23 30.3372 -97.1225 68° East 343 395 14,600  Level Houston Center
08:24 30.3489 -97.0108 83° East 352 405 16,200 1,560 Climbing Houston Center
08:25 30.3422 -96.8911 94° East 364 419 17,800 1,560 Climbing Houston Center
08:26 30.3336 -96.7731 95° East 367 422 19,400 1,320 Climbing Houston Center
08:27 30.3256 -96.6531 94° East 369 425 20,600 1,080 Climbing Houston Center
08:28 30.3175 -96.5256 94° East 387 445 21,700 1,140 Climbing Houston Center
08:29 30.3100 -96.3950 94° East 401 461 23,000 1,140 Climbing Houston Center
08:30 30.3022 -96.2628 94° East 408 470 24,100 1,080 Climbing Houston Center
08:31 30.2942 -96.1278 94° East 416 479 25,200 900 Climbing Houston Center
08:32 30.3264 -96.0042 73° East 420 483 26,000 780 Climbing Houston Center
08:33 30.4003 -95.8925 52° Northeast 433 498 26,900 840 Climbing Houston Center
08:34 30.4750 -95.7792 53° Northeast 442 509 27,800 960 Climbing Houston Center
08:35 30.5656 -95.6436 52° Northeast 446 513 28,900 840 Climbing Houston Center
08:36 30.6417 -95.5269 53° Northeast 452 520 29,600 780 Climbing Houston Center
08:37 30.7194 -95.4072 53° Northeast 453 521 30,500 720 Climbing Houston Center
08:38 30.7944 -95.2892 53° Northeast 453 521 31,100 540 Climbing Houston Center
08:39 30.8703 -95.1714 53° Northeast 453 521 31,700 540 Climbing Houston Center
08:40 30.9483 -95.0517 53° Northeast 460 529 32,300 660 Climbing Houston Center
08:41 31.0258 -94.9317 53° Northeast 463 533 33,100 720 Climbing Houston Center
08:42 31.1000 -94.8133 54° Northeast 459 528 33,800 720 Climbing Houston Center
08:43 31.1961 -94.6869 48° Northeast 490 564 34,600 540 Climbing Houston Center
08:44 31.2997 -94.5917 38° Northeast 461 531 35,000 180 Climbing Houston Center
08:45 31.4025 -94.4983 38° Northeast 467 537 35,000  Level Houston Center
08:46 31.4975 -94.3842 46° Northeast 498 573 35,000  Level Houston Center
08:47 31.5831 -94.2578 52° Northeast 497 572 35,000  Level Houston Center
08:48 31.6683 -94.1289 52° Northeast 500 575 35,000  Level Houston Center
08:49 31.7553 -93.9989 52° Northeast 506 582 35,000  Level Houston Center
08:50 31.8444 -93.8631 52° Northeast 506 582 35,000  Level Houston Center
08:51 31.9308 -93.7331 52° Northeast 505 581 35,000  Level Houston Center
08:52 32.0169 -93.6008 52° Northeast 506 582 35,000  Level Houston Center
08:53 32.1025 -93.4689 53° Northeast 506 582 35,000  Level Houston Center
08:56 32.3042 -93.1517 53° Northeast 513 590 35,000  Level Fort Worth Center
08:57 32.3797 -93.0447 50° Northeast 501 577 35,000  Level Fort Worth Center
08:58 32.4744 -92.8900 54° Northeast 507 583 35,000  Level Fort Worth Center
08:59 32.5614 -92.7550 53° Northeast 507 583 35,000  Level Fort Worth Center
09:01 32.7289 -92.4908 53° Northeast 513 590 35,000  Level Memphis Center
09:02 32.8147 -92.3569 53° Northeast 513 590 35,000  Level Memphis Center
09:03 32.8981 -92.2278 52° Northeast 507 583 35,000  Level Memphis Center
09:04 32.9814 -92.0958 53° Northeast 502 578 35,000  Level Memphis Center
09:05 33.0647 -91.9611 54° Northeast 502 578 35,000  Level Memphis Center
09:06 33.1478 -91.8261 54° Northeast 501 577 35,000  Level Memphis Center
09:07 33.2306 -91.6933 53° Northeast 501 577 35,000  Level Memphis Center
09:08 33.3156 -91.5581 53° Northeast 496 571 35,000  Level Memphis Center
09:09 33.4000 -91.4247 53° Northeast 501 577 35,000  Level Memphis Center
09:10 33.4825 -91.2886 54° Northeast 501 577 35,000  Level Memphis Center
09:11 33.5650 -91.1525 54° Northeast 501 577 35,000  Level Memphis Center
09:12 33.6492 -91.0161 53° Northeast 501 577 35,000  Level Memphis Center
09:13 33.7333 -90.8792 54° Northeast 501 577 35,000  Level Memphis Center
09:14 33.8175 -90.7372 54° Northeast 501 577 35,000  Level Memphis Center
09:15 33.9094 -90.5850 54° Northeast 506 582 35,000  Level Memphis Center
09:16 33.9933 -90.4475 54° Northeast 506 582 35,000  Level Memphis Center
09:17 34.0767 -90.3044 55° Northeast 511 588 35,000  Level Memphis Center
09:18 34.1600 -90.1664 54° Northeast 516 594 35,000  Level Memphis Center
09:19 34.2453 -90.0231 54° Northeast 516 594 35,000  Level Memphis Center
09:20 34.3283 -89.8817 55° Northeast 510 587 35,000  Level Memphis Center
09:21 34.4111 -89.7378 55° Northeast 516 594 35,000  Level Memphis Center
09:22 34.4939 -89.5936 55° Northeast 516 594 35,000  Level Memphis Center
09:23 34.5783 -89.4517 54° Northeast 516 594 35,000  Level Memphis Center
09:24 34.6628 -89.3067 55° Northeast 522 601 35,000  Level Memphis Center
09:25 34.7469 -89.1617 55° Northeast 522 601 35,000  Level Memphis Center
09:26 34.8311 -89.0239 53° Northeast 522 601 35,000  Level Memphis Center
09:27 34.9131 -88.8808 55° Northeast 522 601 35,000  Level Memphis Center
09:28 34.9925 -88.7397 55° Northeast 517 595 35,000  Level Memphis Center
09:29 35.0761 -88.5986 54° Northeast 517 595 35,000  Level Memphis Center
09:30 35.1494 -88.4753 54° Northeast 517 595 35,000  Level Memphis Center
09:31 35.2306 -88.3311 55° Northeast 509 586 35,000  Level Memphis Center
09:32 35.3117 -88.1867 55° Northeast 504 580 35,000  Level Memphis Center
09:33 35.3944 -88.0392 55° Northeast 509 586 35,000  Level Memphis Center
09:34 35.4811 -87.8864 55° Northeast 503 579 35,000  Level Memphis Center
09:35 35.5617 -87.7411 56° Northeast 509 586 35,000  Level Memphis Center
09:36 35.6419 -87.5931 56° Northeast 514 592 35,000  Level Memphis Center
09:37 35.7219 -87.4469 56° Northeast 514 592 35,000  Level Memphis Center
09:38 35.8039 -87.2958 56° Northeast 514 592 35,000  Level Memphis Center
09:39 35.8778 -87.1650 55° Northeast 514 592 35,000  Level Memphis Center
09:40 35.9572 -87.0156 57° Northeast 519 597 35,000  Level Memphis Center
09:41 36.0364 -86.8661 57° Northeast 519 597 35,000  Level Memphis Center
09:42 36.1175 -86.7136 57° Northeast 519 597 35,000  Level Memphis Center
09:43 36.1942 -86.5611 58° Northeast 519 597 35,000  Level Memphis Center
09:44 36.2708 -86.4081 58° Northeast 519 597 35,000  Level Memphis Center
09:45 36.3450 -86.2525 59° Northeast 524 603 35,000  Level Memphis Center
09:46 36.4189 -86.0992 59° Northeast 524 603 35,000  Level Memphis Center
09:46 36.4436 -86.0500 58° Northeast 525 604 35,000  Level Indianapolis Center
09:47 36.5269 -85.8747 59° Northeast 522 601 35,000  Level Indianapolis Center
09:48 36.6003 -85.7189 60° Northeast 520 598 35,000  Level Indianapolis Center
09:49 36.6758 -85.5603 59° Northeast 526 605 35,000  Level Indianapolis Center
09:50 36.7483 -85.4028 60° Northeast 523 602 35,000  Level Indianapolis Center
09:51 36.8217 -85.2436 60° Northeast 525 604 35,000  Level Indianapolis Center
09:52 36.8942 -85.0864 60° Northeast 520 598 35,000  Level Indianapolis Center
09:53 36.9681 -84.9267 60° Northeast 527 606 35,000  Level Indianapolis Center
09:54 37.0581 -84.7353 59° Northeast 532 612 35,000  Level Indianapolis Center
09:55 37.1308 -84.5756 60° Northeast 528 608 35,000  Level Indianapolis Center
09:56 37.2022 -84.4147 61° Northeast 528 608 35,000  Level Indianapolis Center
09:57 37.2750 -84.2539 60° Northeast 527 606 35,000  Level Indianapolis Center
09:58 37.3486 -84.0922 60° Northeast 530 610 35,000  Level Indianapolis Center
09:59 37.4208 -83.9303 61° Northeast 527 606 35,000  Level Indianapolis Center
10:00 37.4919 -83.7692 61° Northeast 525 604 35,000  Level Indianapolis Center
10:01 37.5731 -83.5797 62° Northeast 521 600 35,000  Level Indianapolis Center
10:02 37.6122 -83.3978 75° East 532 612 35,000  Level Indianapolis Center
10:03 37.6492 -83.2183 75° East 529 609 35,000  Level Indianapolis Center
10:05 37.6858 -83.0347 76° East 534 615 35,000  Level Indianapolis Center
10:06 37.7231 -82.8547 75° East 530 610 35,000  Level Indianapolis Center
10:07 37.7614 -82.6750 75° East 530 610 35,000  Level Indianapolis Center
10:08 37.7964 -82.4933 76° East 530 610 35,000  Level Indianapolis Center
10:09 37.8353 -82.3092 75° East 535 616 35,000  Level Indianapolis Center
10:10 37.8814 -82.1253 72° East 527 606 35,000  Level Indianapolis Center
10:11 37.9281 -81.9500 71° East 528 608 35,000  Level Indianapolis Center
10:12 37.9731 -81.7742 72° East 529 609 35,000  Level Indianapolis Center
10:13 38.0272 -81.5636 72° East 526 605 35,000  Level Indianapolis Center
10:14 38.0719 -81.3875 72° East 528 608 35,000  Level Indianapolis Center
10:15 38.1169 -81.2114 72° East 529 609 35,000  Level Indianapolis Center
10:16 38.1608 -81.0319 73° East 533 613 35,000  Level Indianapolis Center
10:17 38.2053 -80.8550 72° East 529 609 35,000  Level Indianapolis Center
10:18 38.2500 -80.6775 72° East 529 609 35,000  Level Indianapolis Center
10:18 38.2761 -80.5803 71° East 525 604 35,000 -180 Level Washington Center
10:19 38.3194 -80.3819 74° East 530 610 34,800 -1,020 Descending Washington Center
10:20 38.3517 -80.1986 77° East 530 610 33,000 -1,980 Descending Washington Center
10:21 38.3900 -80.0156 75° East 530 610 31,000 -2,040 Descending Washington Center
10:22 38.4319 -79.8353 73° East 525 604 29,000 -1,920 Descending Washington Center
10:23 38.4728 -79.6758 72° East 520 598 27,100 -1,920 Descending Washington Center
10:24 38.5097 -79.5053 74° East 515 593 25,100 -1,680 Descending Washington Center
10:25 38.5422 -79.3397 76° East 494 568 23,800 -1,680 Descending Washington Center
10:26 38.5678 -79.1844 78° East 463 533 21,800 -2,040 Descending Washington Center
10:27 38.5908 -79.0394 78° East 437 503 19,700 -2,040 Descending Washington Center
10:28 38.6136 -78.8969 78° East 419 482 17,800 -2,040 Descending Washington Center
10:29 38.6425 -78.7575 75° East 408 470 15,800 -2,040 Descending Washington Center
10:30 38.6750 -78.6258 72° East 397 457 13,800 -2,040 Descending Washington Center
10:31 38.7053 -78.4994 73° East 375 432 11,800 -1,500 Descending Washington Center
10:32 38.7394 -78.3808 70° East 364 419 10,800 -900 Descending Washington Center
10:33 38.7839 -78.2575 65° Northeast 364 419 10,100 -420 Descending Washington Center
10:34 38.8325 -78.1286 64° Northeast 381 438 10,000 -300 Descending Washington Center
10:35 38.8700 -78.0233 65° Northeast 361 415 9,500 -1,200 Descending Washington Center
10:36 38.9075 -77.9231 64° Northeast 329 379 7,600 -1,740 Descending Washington Center
10:37 38.9428 -77.8256 65° Northeast 298 343 6,100 -780 Descending Washington Center
10:38 38.9592 -77.7139 79° East 288 331 6,100  Level Washington Center
10:39 38.9672 -77.6206 84° East 294 338 6,100 -60 Level Washington Center
10:40 39.0347 -77.5772 27° Northeast 232 267 6,000 -780 Descending Washington Center
10:41 39.0867 -77.5758 North 198 228 4,600 -1,560 Descending Washington Center
10:42 39.1000 -77.5000 77° East 223 257 3,100 -1,260 Descending Potomac TRACON
10:43 39.0500 -77.4667 153° Southeast 175 201 2,200 -900 Descending Potomac TRACON
10:44 39.0167 -77.4500 159° South 134 154 1,300 -840 Descending Potomac TRACON
10:45 38.9833 -77.4667 201° Southwest 137 158 600 -720 Descending Potomac TRACON
10:47 38.9474 -77.4599 180° South  Level Estimated
10:54 38.9474 -77.4599 180° South  Level Estimated
10:55 38.9474 -77.4599 180° South  Level Estimated
10:56 38.9474 -77.4599 180° South  Level Estimated
10:57 38.9474 -77.4599 180° South  Level Estimated
10:58 38.9474 -77.4599 180° South  Level Estimated
10:59 38.9474 -77.4599 180° South  Level Estimated